TimeEST,TemperatureF,Dew PointF,Humidity,Sea Level PressureIn,VisibilityMPH,Wind Direction,Wind SpeedMPH,Gust SpeedMPH,PrecipitationIn,Events,Conditions,WindDirDegrees,DateUTC
12:15 AM,16.2,9.7,76,30.04,10.0,West,8.1,16.1,N/A,,Overcast,280,2013-02-03 05:15:00
12:35 AM,15.6,9.3,76,30.03,10.0,West,12.7,-,N/A,,Overcast,280,2013-02-03 05:35:00
12:55 AM,15.4,8.6,74,30.03,10.0,West,10.4,-,N/A,,Overcast,260,2013-02-03 05:55:00
1:15 AM,14.0,7.3,75,30.02,10.0,West,9.2,-,N/A,,Mostly Cloudy,270,2013-02-03 06:15:00
1:35 AM,13.3,6.1,73,30.01,10.0,West,8.1,-,N/A,,Scattered Clouds,260,2013-02-03 06:35:00
1:55 AM,12.7,5.5,73,30.00,10.0,West,5.8,-,N/A,,Clear,260,2013-02-03 06:55:00
2:15 AM,12.2,5.2,73,30.00,10.0,West,5.8,-,N/A,,Mostly Cloudy,270,2013-02-03 07:15:00
2:35 AM,13.1,5.7,72,30.00,10.0,West,8.1,-,N/A,,Overcast,270,2013-02-03 07:35:00
2:55 AM,12.0,4.6,72,30.00,10.0,West,6.9,-,N/A,,Scattered Clouds,280,2013-02-03 07:55:00
3:15 AM,11.3,4.6,75,29.99,10.0,West,4.6,-,N/A,,Scattered Clouds,270,2013-02-03 08:15:00
3:35 AM,10.8,4.5,76,29.98,10.0,West,4.6,-,N/A,,Scattered Clouds,270,2013-02-03 08:35:00
3:55 AM,10.0,4.1,77,29.97,10.0,Calm,Calm,-,N/A,,Clear,0,2013-02-03 08:55:00
4:15 AM,10.4,4.6,78,29.98,10.0,West,5.8,-,N/A,,Scattered Clouds,270,2013-02-03 09:15:00
4:35 AM,11.3,5.0,76,29.96,10.0,WSW,3.5,-,N/A,,Mostly Cloudy,240,2013-02-03 09:35:00
4:55 AM,11.8,5.5,76,29.96,10.0,Calm,Calm,-,N/A,,Overcast,0,2013-02-03 09:55:00
5:15 AM,12.6,5.7,74,29.95,10.0,West,5.8,-,N/A,,Overcast,280,2013-02-03 10:15:00
5:35 AM,13.1,6.1,74,29.95,10.0,West,9.2,-,N/A,,Overcast,270,2013-02-03 10:35:00
5:55 AM,13.3,6.1,73,29.95,10.0,WNW,5.8,-,N/A,,Overcast,290,2013-02-03 10:55:00
6:15 AM,13.6,6.6,74,29.95,10.0,West,6.9,-,N/A,Snow,Light Snow,280,2013-02-03 11:15:00
6:35 AM,13.8,7.2,75,29.96,7.0,West,8.1,-,N/A,Snow,Light Snow,270,2013-02-03 11:35:00
6:55 AM,14.0,7.5,75,29.95,7.0,West,9.2,-,N/A,Snow,Light Snow,270,2013-02-03 11:55:00
7:15 AM,14.0,7.7,76,29.96,10.0,West,4.6,-,N/A,Snow,Light Snow,270,2013-02-03 12:15:00
7:35 AM,14.0,7.7,76,29.96,10.0,West,6.9,-,N/A,,Overcast,270,2013-02-03 12:35:00
7:55 AM,14.0,8.1,77,29.98,10.0,West,8.1,-,N/A,Snow,Light Snow,270,2013-02-03 12:55:00
8:15 AM,14.5,8.6,77,29.98,7.0,West,9.2,-,N/A,Snow,Light Snow,270,2013-02-03 13:15:00
8:35 AM,14.9,9.3,79,29.99,7.0,West,8.1,-,N/A,Snow,Light Snow,270,2013-02-03 13:35:00
8:55 AM,15.4,9.5,77,29.98,10.0,West,6.9,-,N/A,Snow,Light Snow,280,2013-02-03 13:55:00
9:15 AM,15.8,10.0,78,29.98,7.0,West,6.9,-,N/A,Snow,Light Snow,260,2013-02-03 14:15:00
9:35 AM,16.3,10.4,77,29.98,4.0,West,8.1,-,N/A,Snow,Light Snow,270,2013-02-03 14:35:00
9:55 AM,16.7,10.4,76,29.98,7.0,WNW,6.9,-,N/A,Snow,Light Snow,290,2013-02-03 14:55:00
10:15 AM,17.2,10.9,76,29.98,7.0,West,6.9,-,N/A,Snow,Light Snow,280,2013-02-03 15:15:00
10:35 AM,17.6,11.3,76,29.98,3.0,West,6.9,-,N/A,Snow,Light Snow,280,2013-02-03 15:35:00
10:55 AM,18.1,11.8,76,29.98,5.0,WNW,6.9,-,N/A,Snow,Light Snow,290,2013-02-03 15:55:00
11:15 AM,18.7,12.7,78,29.98,5.0,West,6.9,-,N/A,Snow,Light Snow,270,2013-02-03 16:15:00
11:35 AM,19.0,12.9,77,29.99,7.0,West,11.5,-,N/A,Snow,Light Snow,270,2013-02-03 16:35:00
11:55 AM,19.4,13.1,76,29.99,7.0,WNW,5.8,-,N/A,Snow,Light Snow,290,2013-02-03 16:55:00
12:15 PM,20.1,13.6,76,29.99,7.0,West,12.7,-,N/A,Snow,Light Snow,270,2013-02-03 17:15:00
12:35 PM,20.3,14.2,77,30.00,5.0,West,11.5,-,N/A,Snow,Light Snow,270,2013-02-03 17:35:00
12:55 PM,20.7,14.7,78,29.99,3.0,West,10.4,-,N/A,Snow,Light Snow,270,2013-02-03 17:55:00
1:15 PM,21.2,15.3,78,29.99,3.0,West,10.4,16.1,N/A,Snow,Light Snow,270,2013-02-03 18:15:00
1:35 PM,21.7,15.8,78,30.01,2.5,West,12.7,17.3,N/A,Snow,Light Snow,270,2013-02-03 18:35:00
1:55 PM,22.1,16.0,77,30.01,4.0,West,12.7,19.6,N/A,Snow,Light Snow,280,2013-02-03 18:55:00
2:15 PM,22.8,16.2,76,30.00,5.0,West,11.5,-,N/A,Snow,Light Snow,280,2013-02-03 19:15:00
2:35 PM,23.2,16.5,76,30.00,4.0,West,12.7,18.4,N/A,Snow,Light Snow,280,2013-02-03 19:35:00
2:55 PM,24.3,17.2,75,30.00,4.0,West,11.5,18.4,N/A,Snow,Light Snow,280,2013-02-03 19:55:00
3:15 PM,23.9,17.2,76,30.01,3.0,West,11.5,20.7,N/A,Snow,Light Snow,280,2013-02-03 20:15:00
3:55 PM,23.9,15.8,71,30.03,5.0,WNW,15.0,18.4,N/A,Snow,Light Snow,300,2013-02-03 20:55:00
4:15 PM,23.7,16.7,75,30.04,1.5,West,15.0,21.9,N/A,Snow,Light Snow,280,2013-02-03 21:15:00
4:35 PM,23.7,16.2,73,30.05,7.0,WNW,12.7,20.7,N/A,Snow,Light Snow,290,2013-02-03 21:35:00
4:55 PM,23.0,16.3,76,30.05,5.0,WNW,12.7,20.7,N/A,Snow,Light Snow,290,2013-02-03 21:55:00
5:15 PM,23.0,15.4,73,30.06,7.0,WNW,12.7,21.9,N/A,,Mostly Cloudy,290,2013-02-03 22:15:00
5:35 PM,22.6,14.0,69,30.06,10.0,WNW,10.4,18.4,N/A,,Scattered Clouds,290,2013-02-03 22:35:00
5:55 PM,22.5,13.8,69,30.06,10.0,West,10.4,19.6,N/A,,Clear,280,2013-02-03 22:55:00
6:15 PM,21.9,13.8,71,30.06,10.0,West,11.5,17.3,N/A,,Clear,270,2013-02-03 23:15:00
6:35 PM,21.7,13.8,72,30.06,10.0,West,10.4,-,N/A,,Clear,270,2013-02-03 23:35:00
6:55 PM,21.0,12.7,70,30.07,10.0,West,9.2,-,N/A,,Clear,270,2013-02-03 23:55:00
7:15 PM,20.1,12.2,71,30.08,10.0,WSW,5.8,-,N/A,,Clear,250,2013-02-04 00:15:00
7:35 PM,19.6,12.0,72,30.08,10.0,WSW,5.8,-,N/A,,Clear,250,2013-02-04 00:35:00
7:55 PM,18.9,11.7,74,30.07,10.0,WSW,5.8,-,N/A,,Clear,240,2013-02-04 00:55:00
8:55 PM,18.9,12.6,76,30.06,10.0,SW,5.8,-,N/A,,Mostly Cloudy,230,2013-02-04 01:55:00
9:15 PM,19.8,12.2,72,30.07,10.0,SW,6.9,-,N/A,,Overcast,230,2013-02-04 02:15:00
9:35 PM,20.3,12.6,72,30.07,10.0,SW,8.1,-,N/A,,Overcast,230,2013-02-04 02:35:00
9:55 PM,20.5,12.2,70,30.07,10.0,WSW,9.2,-,N/A,,Overcast,240,2013-02-04 02:55:00
10:15 PM,20.7,11.7,68,30.08,10.0,WSW,8.1,-,N/A,,Mostly Cloudy,240,2013-02-04 03:15:00
10:35 PM,20.8,11.8,68,30.08,10.0,SW,8.1,-,N/A,,Overcast,230,2013-02-04 03:35:00
10:55 PM,21.7,12.7,68,30.08,10.0,WSW,9.2,-,N/A,,Overcast,240,2013-02-04 03:55:00
11:15 PM,22.1,12.7,67,30.07,10.0,WSW,8.1,-,N/A,,Overcast,240,2013-02-04 04:15:00
11:35 PM,20.8,11.8,68,30.08,10.0,WSW,8.1,-,N/A,,Mostly Cloudy,240,2013-02-04 04:35:00
11:55 PM,20.5,12.2,70,30.07,10.0,SW,8.1,-,N/A,,Mostly Cloudy,230,2013-02-04 04:55:00